This is the latest recevied weather packets stored in our database for station/object EA1L-13. If no packets are shown the sender has not sent any weather packets the latest 10 day(s).
| Time | Temp. | Humidity | Pressure | Rain* | Wind** | Luminosity | Snow |
|---|---|---|---|---|---|---|---|
| 1778191204 | 11.67° C | 97% | 1008.1 hPa | 0 mm | - | - | - |
| 1778190305 | 11.67° C | 96% | 1008.2 hPa | 0 mm | - | - | - |
| 1778189405 | 11.67° C | 95% | 1008.2 hPa | 0 mm | - | - | - |
| 1778188504 | 11.67° C | 95% | 1008.4 hPa | 0 mm | - | - | - |
| 1778187604 | 11.67° C | 94% | 1008.3 hPa | 0 mm | - | - | - |
| 1778186704 | 12.22° C | 92% | 1008.2 hPa | 0 mm | - | - | - |
| 1778185805 | 11.67° C | 91% | 1007.9 hPa | 0 mm | - | - | - |
| 1778184905 | 12.22° C | 90% | 1008 hPa | 0 mm | - | - | - |
| 1778184004 | 12.22° C | 90% | 1007.8 hPa | 0 mm | - | - | - |
| 1778183105 | 12.22° C | 89% | 1007.6 hPa | 0 mm | - | - | - |
| 1778182205 | 12.78° C | 88% | 1007.6 hPa | 0 mm | - | - | - |
| 1778181304 | 12.78° C | 88% | 1007.4 hPa | 0 mm | - | - | - |
| 1778180405 | 13.33° C | 88% | 1007.3 hPa | 0 mm | - | - | - |
| 1778179505 | 13.33° C | 89% | 1007.3 hPa | 0 mm | - | - | - |
| 1778178605 | 13.33° C | 89% | 1007.2 hPa | 0.25 mm | - | - | - |
| 1778177704 | 13.33° C | 88% | 1007.2 hPa | 0.25 mm | - | - | - |
| 1778176804 | 13.33° C | 85% | 1007.3 hPa | 0.51 mm | - | - | - |
| 1778175904 | 13.89° C | 81% | 1007.1 hPa | 0.51 mm | - | - | - |
| 1778175005 | 14.44° C | 80% | 1007.5 hPa | 0.25 mm | - | - | - |
| 1778174104 | 15° C | 78% | 1007.5 hPa | 0.25 mm | - | - | - |
| 1778173204 | 15.56° C | 75% | 1007.3 hPa | 0 mm | - | - | - |
| 1778172304 | 15.56° C | 74% | 1007.1 hPa | 0 mm | - | - | - |
| 1778171405 | 15.56° C | 71% | 1006.9 hPa | 0 mm | - | - | - |
| 1778170504 | 15.56° C | 71% | 1006.7 hPa | 0 mm | - | - | - |
| 1778169604 | 15.56° C | 69% | 1006.6 hPa | 0 mm | - | - | - |
* Rain latest hour (hover to see other rain measurements)
** Current wind speed in m/s (hover to see current wind gust speed)